Regional Weather Roundup
Issued by NWS

Home | Current Version | Previous Version | Graphics & Text | Print | Product List | Glossary Off
Versions: 1 2 3 4 5 6 7 8 9 10 11 12 13 14 15 16 17 18 19 20 21 22 23 24 25 26 27 28 29 30 31 32 33 34 35 36 37 38 39 40 41 42 43 44 45 46 47 48 49 50

000
ASUS45 KABQ 291010
RWRNM
NEW MEXICO REGIONAL WEATHER ROUNDUP
NATIONAL WEATHER SERVICE ALBUQUERQUE NM
400 AM MDT THU SEP 29 2016

NOTE: "FAIR" MEANS FEW OR NO CLOUDS BELOW 12,000 FEET AGL WITH NO
       SIGNIFICANT WEATHER OR OBSTRUCTIONS TO VISION.

      THIS PRODUCT IS RELEASED AS TWO VERSIONS.  ONE VERSION NEAR
      THE TOP OF THE HOUR CONTAINING PRELIMINARY DATA FROM ALBUQUERQUE
      AND OTHER STATIONS.  A FINAL VERSION WITH ADDITIONAL DATA IS
      ISSUED ABOUT 10 MINUTES AFTER THE HOUR.

NMZ501-503-504-510>518-291100-
NORTHWEST PLATEAU/NORTHCENTRAL MOUNTAINS

CITY           SKY/WX    TMP DP  RH WIND       PRES   REMARKS
FARMINGTON     CLOUDY    61  49  64 CALM      30.34S
LOS ALAMOS     MOCLDY    60  30  31 SW7       30.49S
SANTA FE       FAIR      62  32  32 E7        30.43S
TAOS           FAIR      50  25  37 NE3       30.49S

$$
NMZ402-403-502-505>509-291100-
WESTCENTRAL MOUNTAINS/SOUTHWEST MOUNTAINS

CITY           SKY/WX    TMP DP  RH WIND       PRES   REMARKS
GALLUP         CLOUDY    53  52  96 CALM      30.39S
SILVER CITY    FAIR      62  50  64 E6        30.31F

$$
NMZ407-409-411-412-291100-
SOUTHERN DESERTS

CITY           SKY/WX    TMP DP  RH WIND       PRES   REMARKS
DEMING         FAIR      64  54  69 NE8       30.26S
LAS CRUCES     FAIR      65  55  69 SE5       30.29R
ALAMOGORDO     FAIR      64  48  55 N7        30.28R
T OR C         FAIR      64  51  62 W5        30.29S

$$
NMZ519>523-291100-
CENTRAL VALLEYS/CENTRAL HIGHLANDS

CITY           SKY/WX    TMP DP  RH WIND       PRES   REMARKS
ALBUQUERQUE    MOCLDY    65  34  31 NW8       30.35S
DOUBLE EAGLE   FAIR      62  33  34 N7        30.39S
MORIARTY ARPT  FAIR      49  37  64 CALM      30.44F
CLINES CORNERS FAIR      55  34  45 E5        30.48S
BELEN          FAIR      68  33  27 S7        30.33F
SOCORRO        FAIR      66  46  47 SW5       30.31S

$$
NMZ524>526-539-540-291100-
SOUTHCENTRAL MOUNTAINS

CITY           SKY/WX    TMP DP  RH WIND       PRES   REMARKS
RUIDOSO        FAIR      55  39  54 S5        30.47S

$$
NMZ527>531-291100-
NORTHEAST HIGHLANDS/NORTHEAST PLAINS

CITY           SKY/WX    TMP DP  RH WIND       PRES   REMARKS
LAS VEGAS      FAIR      45  31  58 NE5       30.48S
RATON          FAIR      43  32  65 N7        30.45S
CLAYTON        FAIR      50  46  86 SW3       30.41R

$$
NMZ532>537-291100-
EASTCENTRAL PLAINS

CITY           SKY/WX    TMP DP  RH WIND       PRES   REMARKS
TUCUMCARI      FAIR      55  38  52 N6        30.33S
CANNON AFB     NOT AVBL
CLOVIS AIRPORT FAIR      54  45  71 E7        30.36R

$$
NMZ028-029-538-291100-
SOUTHEAST PLAINS

CITY           SKY/WX    TMP DP  RH WIND       PRES   REMARKS
ROSWELL        FAIR      60  49  66 CALM      30.29S
ARTESIA        FAIR      57  55  94 NW5       30.29S
CARLSBAD       FAIR      56  54  93 NW5       30.26S
HOBBS          FAIR      54  48  82 N7        30.31R


$$




USA.gov is the U.S. government's official web portal to all federal, state and local government web resources and services.